AE7VB Weather Reports


time (UTC)temp
F
wind
direction
speed
knots
gust
knots
rain 1hr
in
rain 24hr
in
rain mn
in
humidity
%
barometer
mb
20260506000532 68 10 0.9 4.3 0.00 0.00 0.00 38 1015.7
20260505235531 68 310 0.9 6.1 0.00 0.00 0.00 37 1015.8
20260505234530 70 303 1.7 9.6 0.00 0.00 0.00 37 1016.3
20260505233458 70 324 1.7 9.6 0.00 0.00 0.00 38 1016.0
20260505232457 69 312 1.7 8.7 0.00 0.00 0.00 40 1016.0
20260505231425 69 304 1.7 7.0 0.00 0.00 0.00 39 1016.0
20260505230352 69 328 1.7 7.8 0.00 0.00 0.00 37 1016.3
20260505225351 69 11 0.9 7.8 0.00 0.00 0.00 37 1016.4
20260505224350 69 19 1.7 3.5 0.00 0.00 0.00 37 1016.5
20260505223348 70 5 0.9 7.0 0.00 0.00 0.00 34 1016.5
20260505222347 70 324 1.7 7.0 0.00 0.00 0.00 36 1016.6
20260505221346 69 336 1.7 3.5 0.00 0.00 0.00 37 1017.0
20260505220345 69 10 1.7 6.1 0.00 0.00 0.00 38 1016.8
20260505215345 70 316 1.7 6.1 0.00 0.00 0.00 39 1017.2
20260505214344 69 325 0.9 8.7 0.00 0.00 0.00 38 1017.0
20260505213343 68 21 1.7 8.7 0.00 0.00 0.00 40 1016.9
20260505212342 69 1 0.9 4.3 0.00 0.00 0.00 39 1016.9
20260505211341 69 302 1.7 4.3 0.00 0.00 0.00 40 1016.9
20260505210339 68 14 1.7 5.2 0.00 0.00 0.00 44 1017.3
20260505205338 69 259 2.6 7.8 0.00 0.00 0.00 39 1017.3
20260505204337 69 304 1.7 7.8 0.00 0.00 0.00 41 1017.4
20260505203336 69 282 1.7 5.2 0.00 0.00 0.00 38 1017.5
20260505202334 68 97 0.9 6.1 0.00 0.00 0.00 41 1017.4
20260505201333 68 309 0.9 6.1 0.00 0.00 0.00 40 1017.4
20260505200332 68 349 1.7 4.3 0.00 0.00 0.00 40 1017.3
20260505195300 67 75 1.7 4.3 0.00 0.00 0.00 40 1017.3
20260505194259 67 31 0.9 2.6 0.00 0.00 0.00 39 1017.2
20260505193258 66 30 0.9 2.6 0.00 0.00 0.00 40 1017.2
20260505192257 66 36 0.9 2.6 0.00 0.00 0.00 42 1017.3
20260505191225 67 43 0.9 2.6 0.00 0.00 0.00 43 1017.5
20260505190224 66 67 0.9 2.6 0.00 0.00 0.00 48 1017.5
20260505185223 65 95 0.9 3.5 0.00 0.00 0.00 48 1017.4
20260505184221 65 52 0.9 7.8 0.00 0.00 0.00 53 1017.5
20260505183220 65 28 1.7 7.8 0.00 0.00 0.00 50 1017.4
20260505182219 65 48 1.7 5.2 0.00 0.00 0.00 53 1017.5
20260505181218 64 24 1.7 4.3 0.00 0.00 0.00 56 1017.5
20260505180216 64 18 0.9 4.3 0.00 0.00 0.00 55 1017.5
20260505175215 64 44 0.9 4.3 0.00 0.00 0.00 58 1017.6
20260505174142 63 55 0.9 3.5 0.00 0.00 0.00 58 1017.6
20260505173141 64 14 1.7 3.5 0.00 0.00 0.00 57 1017.7
20260505172141 63 17 0.9 2.6 0.00 0.00 0.00 60 1017.6
20260505171139 61 5 1.7 3.5 0.00 0.00 0.00 60 1017.5
20260505170137 60 17 0.9 3.5 0.00 0.00 0.00 61 1017.5
20260505165136 59 0 1.7 3.5 0.00 0.00 0.00 60 1017.3
20260505164136 59 37 0.9 3.5 0.00 0.00 0.00 63 1017.2
20260505163103 58 273 0.9 6.1 0.00 0.00 0.00 64 1017.2
20260505162102 58 298 1.7 6.1 0.00 0.00 0.00 67 1017.2
20260505161101 57 279 1.7 3.5 0.00 0.00 0.00 67 1017.1
20260505153057 55 277 1.7 3.5 0.00 0.00 0.00 69 1016.9
20260505152056 54 291 0.9 3.5 0.00 0.00 0.00 69 1016.9
20260505150952 54 300 1.7 2.6 0.00 0.00 0.00 71 1017.0
20260505124837 43 263 0.0 0.9 0.00 0.00 0.00 85 1015.7
20260505123837 43 263 0.0 0.9 0.00 0.00 0.00 85 1015.7
20260505122836 43 263 0.0 0.0 0.00 0.00 0.00 84 1015.8
20260505121834 43 263 0.0 0.0 0.00 0.00 0.00 83 1015.5
20260505120833 44 263 0.0 0.0 0.00 0.00 0.00 83 1015.5
20260505115833 44 263 0.0 1.7 0.00 0.00 0.00 83 1015.5
20260505114832 45 263 0.0 2.6 0.00 0.00 0.00 83 1015.2
20260505113831 45 263 0.9 2.6 0.00 0.00 0.00 83 1015.2
20260505112759 45 281 0.9 3.5 0.00 0.00 0.00 83 1015.3
20260505111757 45 281 0.0 3.5 0.00 0.00 0.00 82 1015.3
20260505110756 46 194 0.9 2.6 0.00 0.00 0.00 81 1015.4
20260505101751 48 217 0.9 1.7 0.00 0.00 0.00 79 1015.1
20260505100750 49 219 0.9 4.3 0.00 0.00 0.00 79 1015.2
20260505095749 49 220 1.7 6.1 0.00 0.00 0.00 80 1015.3
20260505094717 49 225 3.5 6.1 0.00 0.00 0.00 81 1015.2
20260505093716 48 232 2.6 4.3 0.00 0.00 0.00 82 1015.2
20260505092715 48 269 1.7 2.6 0.00 0.00 0.00 81 1015.2
20260505091713 48 247 1.7 2.6 0.00 0.00 0.00 81 1015.1
20260505090641 48 155 0.0 1.7 0.00 0.00 0.00 80 1014.8
20260505085640 49 155 0.9 2.6 0.00 0.00 0.00 80 1014.9
20260505084639 49 155 0.9 2.6 0.00 0.00 0.00 80 1014.9
20260505083638 49 157 1.7 3.5 0.00 0.00 0.00 79 1015.1
20260505082637 50 155 1.7 4.3 0.00 0.00 0.00 79 1015.0
20260505081635 50 151 1.7 4.3 0.00 0.00 0.00 79 1015.3
20260505080634 50 152 1.7 4.3 0.00 0.00 0.00 79 1015.3
20260505075633 50 156 0.9 4.3 0.00 0.00 0.00 78 1015.3
20260505074601 50 150 1.7 2.6 0.00 0.00 0.00 77 1015.3
20260505073600 51 152 1.7 2.6 0.00 0.00 0.00 77 1015.3
20260505072559 51 291 0.0 0.9 0.00 0.00 0.00 76 1015.0
20260505071558 52 309 0.0 0.9 0.00 0.00 0.00 75 1015.2
20260505070526 52 309 0.0 2.6 0.00 0.00 0.00 74 1014.8
20260505065524 53 309 1.7 2.6 0.00 0.00 0.00 73 1014.7
20260505064452 53 151 0.9 1.7 0.00 0.00 0.00 72 1014.5
20260505063451 53 150 0.9 2.6 0.00 0.00 0.00 72 1014.2
20260505062450 54 150 0.9 3.5 0.00 0.00 0.00 72 1014.2
20260505061449 54 144 1.7 3.5 0.00 0.00 0.00 72 1014.6
20260505060447 54 135 1.7 3.5 0.00 0.00 0.00 71 1014.6
20260505055446 55 133 1.7 3.5 0.00 0.00 0.00 70 1014.6
20260505054446 55 133 1.7 3.5 0.00 0.00 0.00 70 1014.6
20260505053445 56 109 1.7 2.6 0.00 0.00 0.00 69 1014.6
20260505052444 56 90 0.9 3.5 0.00 0.00 0.00 68 1014.6
20260505051443 57 111 0.9 3.5 0.00 0.00 0.00 67 1014.7
20260505050442 58 108 0.9 3.5 0.00 0.00 0.00 66 1014.6
20260505041436 59 192 0.9 3.5 0.00 0.00 0.00 67 1013.5
20260505040435 59 208 1.7 2.6 0.00 0.00 0.00 65 1013.5
20260505035433 60 209 0.9 1.7 0.00 0.00 0.00 63 1013.5
20260505034433 60 210 0.0 1.7 0.00 0.00 0.00 62 1013.2
20260505033431 61 212 0.0 2.6 0.00 0.00 0.00 61 1013.3
20260505032430 62 212 0.9 2.6 0.00 0.00 0.00 58 1013.3
20260505031429 63 101 0.0 1.7 0.00 0.00 0.00 58 1013.5
20260505030427 65 101 0.9 1.7 0.00 0.00 0.00 55 1013.6
20260505025427 66 276 0.9 0.9 0.00 0.00 0.00 50 1013.6
20260505024426 67 276 0.0 2.6 0.00 0.00 0.00 49 1013.6
20260505023425 68 275 0.0 7.0 0.00 0.00 0.00 46 1013.2
20260505022424 68 291 1.7 7.0 0.00 0.00 0.00 44 1013.0
20260505021423 69 296 3.5 6.1 0.00 0.00 0.00 44 1012.8
20260505020422 69 295 1.7 4.3 0.00 0.00 0.00 44 1012.8
20260505015421 70 326 1.7 5.2 0.00 0.00 0.00 43 1012.7
20260505014419 71 309 1.7 7.0 0.00 0.00 0.00 42 1012.7
20260505013418 72 321 1.7 7.0 0.00 0.00 0.00 39 1012.7
20260505012418 73 351 0.9 6.1 0.00 0.00 0.00 37 1012.7
20260505011417 73 301 1.7 7.0 0.00 0.00 0.00 36 1012.6
20260505010416 73 316 1.7 7.0 0.00 0.00 0.00 37 1012.6
20260505005415 73 319 0.9 6.1 0.00 0.00 0.00 37 1012.5
20260505004344 72 328 1.7 7.8 0.00 0.00 0.00 35 1012.5
20260505003343 73 324 0.9 7.8 0.00 0.00 0.00 32 1012.5
20260505002310 73 318 1.7 6.1 0.00 0.00 0.00 31 1012.4
20260505001309 72 312 1.7 5.2 0.00 0.00 0.00 35 1012.5